This demonstration page uses our WeatherBlox Daily Observations layout. Learn more.

Left ArrowRight Arrow

44.8408, -93.29828

Hourly Observations for July 29, 2021

Temp ( °F °C ) Dew Point ( °F °C ) Humidity (%) Winds ( mph kmh ) Pressure ( in mb ) Visibility ( mi km ) Precip ( " mm )
12:53 am 00:53 Clear 81 27.2 72 22.2 74 74 NNW 9 15 29.85 1011 10 16 0.00 0.00
1:53 am 01:53 Clear 80 26.7 71 21.7 74 74 NNW 7 11 29.86 1011 10 16 0.00 0.00
2:53 am 02:53 Clear 79 26.1 70 21.1 74 74 NNW 10 17 29.88 1012 10 16 0.00 0.00
3:53 am 03:53 Clear 78 25.6 70 21.1 76 76 NNW 12 19 29.90 1013 10 16 0.00 0.00
4:53 am 04:53 Clear 76 24.4 69 20.6 79 79 N 12 19 29.93 1014 10 16 0.00 0.00
5:53 am 05:53 Mostly Clear 74 23.3 67 19.4 79 79 N 12 19 29.95 1014 7 11 0.00 0.00
6:53 am 06:53 Sunny 74 23.3 67 19.4 79 79 N 12 19 29.97 1015 9 14 0.00 0.00
7:53 am 07:53 Sunny 75 23.9 66 18.9 74 74 NNE 13 20 29.99 1016 9 14 0.00 0.00
8:53 am 08:53 Sunny 77 25 66 18.9 69 69 NNE 14 22 30.01 1016 9 14 0.00 0.00
9:53 am 09:53 Sunny 80 26.7 65 18.3 60 60 NNE 13 20 30.02 1017 8 13 0.00 0.00
10:53 am 10:53 Partly Cloudy 80 26.7 63 17.2 56 56 N 13 20 30.03 1017 7 11 0.00 0.00
11:53 am 11:53 Cloudy 81 27.2 61 16.1 51 51 NNE 14 22 30.05 1018 7 11 0.00 0.00
12:53 pm 12:53 Cloudy 81 27.2 62 16.7 53 53 NNE 14 22 30.05 1018 7 11 0.00 0.00
1:53 pm 13:53 Cloudy 83 28.3 60 15.6 46 46 N 10 17 30.05 1018 7 11 0.00 0.00
2:53 pm 14:53 Cloudy 85 29.4 60 15.6 43 43 NNE 15 24 30.04 1017 7 11 0.00 0.00
3:42 pm 15:42 Cloudy with Haze 84 28.9 60 15.6 44 44 N 14 22 30.01 1016 3 5 0.00 0.00
3:53 pm 15:53 Cloudy with Haze 83 28.3 59 15 44 44 N 12 19 30.04 1017 3 5 0.00 0.00
4:53 pm 16:53 Cloudy with Haze 83 28.3 57 13.9 41 41 N 14 22 30.05 1018 3 5 0.00 0.00
5:53 pm 17:53 Cloudy with Haze 81 27.2 55 12.8 41 41 NNE 10 17 30.06 1018 3 5 0.00 0.00
6:53 pm 18:53 Cloudy with Smoke 79 26.1 57 13.9 47 47 NNE 13 20 30.08 1019 3 5 0.00 0.00
7:53 pm 19:53 Cloudy with Smoke 77 25 59 15 54 54 NNE 10 17 30.09 1019 3 5 0.00 0.00
8:53 pm 20:53 Cloudy with Smoke 76 24.4 60 15.6 58 58 NNE 8 13 30.09 1019 2 3 0.00 0.00
9:53 pm 21:53 Cloudy with Smoke 73 22.8 59 15 62 62 NNE 8 13 30.11 1020 3 5 0.00 0.00
10:53 pm 22:53 Mostly Clear with Smoke 71 21.7 58 14.4 63 63 NNE 6 9 30.12 1020 3 5 0.00 0.00
11:53 pm 23:53 Partly Cloudy with Smoke 70 21.1 59 15 68 68 NNE 5 7 30.14 1021 3 5 0.00 0.00

Powered by AerisWeather